GFSNGP_850_temp_024.txt.gz
Temp
21 21 21 20 21 22 21 21 18 19 21 22 23 22 23 22 21 20 20 19 19 18 15 13 12 11 10 9 7 6 6 5 5 6 5 4 3 3 2 1 1 -0 -0 -1
17 19 20 19 20 21 21 21 21 21 21 23 23 21 21 20 20 20 19 19 19 18 16 14 12 11 10 9 7 6 6 5 6 5 4 4 3 2 2 1 1 0 -0 -1
16 17 16 14 16 19 20 21 21 19 21 22 22 22 20 19 19 19 18 18 17 16 15 14 13 12 10 9 7 6 6 5 4 4 3 2 2 2 1 1 0 0 -1 -1
14 11 13 19 21 21 20 20 21 22 21 21 19 18 18 18 18 18 17 16 16 15 15 14 13 12 10 8 7 6 5 4 4 2 2 2 1 1 0 0 -0 -1 -1 -2
11 14 17 18 20 19 18 18 19 19 19 19 18 17 18 18 17 16 15 15 15 15 14 13 12 11 9 8 7 6 4 2 -0 1 1 1 0 0 -0 -1 -1 -1 -2 -2
12 13 13 17 18 18 18 16 18 17 17 17 17 13 16 15 15 15 15 15 14 14 13 12 11 9 8 7 5 3 1 0 0 0 1 1 -1 -1 -2 -2 -2 -2 -2 -2
12 11 13 19 18 17 15 15 16 16 16 16 16 16 14 14 13 13 14 13 13 12 11 9 8 6 5 3 1 -1 -1 -2 -1 0 -0 -2 -3 -3 -3 -3 -3 -3 -3 -3
13 9 10 18 17 14 15 16 15 15 15 14 14 14 14 14 14 12 12 12 10 9 7 4 4 3 1 -0 -2 -2 -1 -1 1 0 -1 -3 -3 -3 -3 -3 -3 -3 -3 -4
14 14 17 17 16 16 15 15 14 14 14 14 14 14 13 13 12 10 10 8 6 6 4 2 0 1 0 -2 -2 -2 -2 1 0 -2 -3 -3 -3 -4 -4 -4 -4 -4 -4 -4
15 18 18 17 16 16 15 14 13 13 13 13 12 12 12 12 10 8 6 4 3 2 1 -0 -1 -2 -2 -2 -2 -0 0 -0 -3 -2 -2 -3 -4 -4 -4 -4 -5 -4 -4 -4
15 16 17 16 14 12 12 12 11 11 10 9 9 10 10 8 6 3 2 2 1 0 -0 -0 -1 -1 -2 -1 -0 -0 -1 -1 -1 -2 -2 -3 -4 -4 -4 -5 -6 -6 -5 -5
13 14 13 13 10 10 9 8 8 8 6 5 6 5 4 2 2 2 1 1 0 0 0 -0 -1 -2 -2 -1 -1 -1 -1 -1 -2 -2 -3 -4 -4 -5 -4 -5 -5 -5 -5 -5
13 11 11 9 8 6 6 5 4 4 3 3 3 4 3 3 1 1 0 -0 -0 -1 -2 -3 -2 -1 -1 -1 -1 -1 -2 -2 -2 -3 -4 -5 -5 -5 -6 -5 -5 -5 -5 -5
9 9 9 9 7 5 3 2 2 2 1 0 0 0 -0 -0 -1 -1 -2 -2 -2 -2 -1 -1 -1 -1 -2 -2 -2 -2 -3 -3 -3 -4 -5 -5 -5 -6 -7 -7 -6 -5 -6 -6
8 8 7 6 3 2 1 1 1 -0 -0 -1 -1 -1 -0 -0 -1 -1 -1 -2 -2 -1 -2 -2 -2 -2 -2 -2 -3 -3 -3 -3 -4 -4 -5 -5 -5 -6 -6 -6 -6 -6 -6 -6
7 6 4 3 2 1 1 0 0 -0 0 -0 -0 -0 -1 -1 -1 -1 -1 -2 -1 -2 -2 -2 -2 -2 -2 -2 -3 -3 -4 -4 -4 -4 -5 -5 -5 -6 -6 -6 -6 -6 -6 -6
4 2 1 1 1 1 1 -0 -0 -1 -0 0 -0 -1 -1 -1 -2 -1 -2 -2 -2 -2 -2 -2 -2 -3 -3 -3 -3 -4 -4 -4 -4 -4 -5 -5 -5 -6 -6 -6 -6 -6 -6 -6
3 1 1 1 1 -0 -1 -0 -0 -0 -1 -1 -1 -2 -2 -1 -2 -2 -2 -2 -2 -2 -3 -4 -5 -5 -5 -5 -5 -5 -5 -5 -5 -5 -5 -5 -6 -6 -6 -7 -7 -7 -7 -7
1 1 0 -0 -0 -0 -0 -1 -1 -2 -2 -2 -2 -2 -2 -2 -2 -2 -3 -3 -3 -5 -6 -6 -7 -7 -6 -6 -6 -6 -6 -6 -6 -6 -6 -6 -6 -6 -7 -7 -7 -7 -7 -7
-0 -1 -1 -0 -0 -1 -1 -2 -3 -2 -2 -2 -2 -2 -2 -3 -3 -4 -4 -6 -7 -7 -7 -8 -7 -7 -8 -8 -8 -8 -7 -7 -7 -6 -6 -6 -7 -7 -7 -7 -7 -7 -7 -7
-1 -1 -1 -1 -1 -2 -2 -2 -2 -2 -2 -2 -3 -3 -4 -5 -6 -6 -7 -8 -8 -8 -8 -8 -9 -9 -9 -9 -9 -9 -8 -8 -8 -8 -7 -6 -7 -7 -8 -8 -8 -8 -8 -8
-1 -1 -2 -2 -2 -2 -3 -3 -3 -3 -3 -4 -4 -4 -5 -5 -6 -7 -8 -9 -9 -9 -9 -11 -11 -10 -10 -10 -11 -10 -9 -9 -8 -8 -8 -7 -8 -8 -9 -10 -10 -10 -10 -10
-2 -2 -2 -3 -3 -3 -3 -3 -3 -4 -4 -5 -5 -6 -6 -7 -9 -10 -10 -11 -11 -10 -11 -13 -12 -11 -11 -12 -12 -12 -11 -11 -11 -11 -10 -11 -11 -11 -11 -12 -12 -12 -12 -12
-2 -3 -3 -3 -4 -4 -5 -5 -5 -6 -6 -7 -8 -9 -9 -10 -10 -11 -11 -11 -13 -12 -13 -14 -13 -12 -13 -13 -13 -13 -13 -14 -13 -13 -13 -13 -13 -13 -13 -13 -14 -14 -13 -13
-3 -3 -4 -4 -5 -6 -7 -6 -7 -8 -8 -8 -9 -10 -11 -12 -12 -13 -14 -14 -15 -15 -15 -16 -16 -15 -15 -14 -15 -15 -15 -16 -15 -15 -15 -15 -15 -15 -15 -15 -15 -14 -14 -14
-5 -5 -5 -6 -6 -7 -7 -7 -7 -9 -9 -11 -11 -12 -12 -13 -13 -14 -15 -15 -15 -16 -16 -17 -17 -18 -18 -17 -18 -18 -18 -18 -17 -17 -17 -17 -17 -17 -17 -16 -16 -15 -15 -15
-6 -7 -7 -8 -8 -8 -7 -9 -9 -10 -12 -12 -12 -13 -13 -13 -14 -15 -16 -16 -17 -17 -17 -18 -18 -19 -19 -19 -20 -20 -20 -20 -19 -19 -19 -18 -18 -18 -18 -18 -17 -17 -16 -16

GFSNGP_850_temp_027.txt.gz
Temp
17 17 18 19 19 18 18 16 13 14 16 17 19 17 18 19 20 20 19 18 18 17 16 14 13 12 11 10 10 9 8 7 6 5 4 4 4 3 3 2 2 1 1 0
16 17 16 16 17 17 17 18 18 18 17 18 19 19 19 19 19 19 19 18 18 17 16 15 13 12 11 11 9 8 8 7 6 5 4 4 3 2 1 2 1 1 0 -0
13 12 13 10 14 16 16 17 17 15 16 14 15 16 17 18 18 17 18 17 17 16 15 15 13 12 12 10 9 8 7 6 5 5 4 2 1 0 1 1 1 0 0 -0
8 8 9 14 18 18 17 16 15 15 14 15 16 15 16 16 16 16 15 15 15 15 15 14 13 12 11 10 9 7 6 5 5 3 2 0 -1 1 -0 1 -0 -0 -1 -1
7 7 11 15 16 17 16 14 14 13 13 15 16 16 14 15 15 15 15 15 15 14 14 13 13 12 11 8 7 6 5 4 2 -0 -2 -2 -1 -0 1 -1 -1 -1 -2 -2
6 7 8 11 16 17 16 10 14 14 13 13 15 6 10 14 14 14 13 13 14 13 13 12 11 10 9 7 6 3 1 -1 -1 -1 -1 -1 0 0 -3 -2 -3 -3 -2 -2
4 5 8 14 16 16 11 10 15 15 14 14 11 12 14 14 13 12 12 12 12 12 11 8 7 8 6 3 1 -1 -1 -1 -1 -1 -1 0 -1 -2 -3 -3 -3 -3 -3 -3
6 6 8 16 15 12 11 14 14 14 14 14 14 13 13 12 12 11 11 10 9 10 8 5 4 5 4 2 -0 -0 0 0 -0 0 -0 -1 -2 -3 -3 -3 -3 -4 -4 -4
9 7 12 16 15 15 15 14 13 13 13 13 12 11 11 10 10 9 8 8 6 7 5 3 3 3 2 1 1 0 -0 -1 -1 -1 -1 -2 -3 -2 -3 -3 -4 -4 -4 -4
11 15 14 16 13 13 13 12 11 11 11 11 10 10 9 8 7 7 6 5 4 4 4 3 1 1 1 -0 -0 -1 -1 -1 -0 -1 -2 -2 -2 -3 -4 -4 -4 -4 -5 -5
11 14 11 10 11 11 11 11 10 10 9 8 9 8 7 6 5 3 3 3 2 2 1 0 -0 -0 -0 -1 -1 -1 -1 -1 -1 -2 -2 -2 -2 -3 -4 -5 -5 -5 -5 -5
6 11 9 8 8 9 10 8 7 8 7 5 6 5 4 3 2 2 1 1 1 -0 -1 -1 -1 -0 -1 -1 -1 -1 -1 -1 -2 -2 -2 -2 -3 -3 -4 -5 -5 -5 -6 -6
10 11 9 7 8 7 7 6 5 5 4 4 2 2 2 1 -0 -0 -1 -0 -0 -0 -1 -1 -1 -1 -1 -1 -2 -2 -2 -2 -2 -2 -3 -3 -4 -4 -5 -4 -4 -5 -5 -6
10 8 7 7 3 5 5 4 3 2 2 1 1 0 -0 -1 -1 -1 -1 -1 -1 -1 -1 -2 -2 -2 -2 -3 -3 -3 -3 -3 -3 -3 -4 -4 -4 -5 -5 -6 -6 -5 -5 -5
8 9 5 3 3 2 2 1 1 0 -0 -0 -0 -0 -0 -1 -1 -1 -1 -1 -2 -2 -2 -2 -2 -2 -2 -2 -2 -3 -4 -4 -4 -4 -4 -4 -4 -5 -5 -5 -5 -5 -5 -6
5 5 4 3 2 1 1 -0 -0 -0 -0 0 0 -0 -1 -1 -1 -1 -1 -2 -2 -2 -2 -3 -3 -4 -4 -4 -4 -4 -4 -5 -5 -5 -4 -4 -4 -5 -5 -5 -6 -6 -6 -6
4 2 2 1 1 0 -0 -0 -0 0 -0 0 -0 -1 -1 -1 -2 -1 -2 -2 -2 -3 -4 -6 -6 -7 -7 -7 -7 -6 -6 -6 -6 -6 -5 -6 -5 -5 -5 -6 -6 -7 -7 -7
5 3 2 1 0 0 -0 -0 -0 -0 -1 -1 -1 -1 -1 -1 -2 -2 -3 -3 -4 -4 -5 -6 -6 -6 -7 -7 -7 -8 -8 -8 -7 -7 -7 -7 -6 -7 -6 -6 -6 -7 -7 -7
2 1 1 1 1 0 -0 -1 -1 -1 -2 -2 -2 -2 -2 -2 -3 -4 -4 -4 -5 -6 -7 -9 -8 -8 -8 -9 -9 -9 -9 -9 -9 -8 -8 -8 -7 -7 -7 -6 -6 -7 -7 -7
0 1 1 0 -0 -0 -1 -1 -2 -2 -2 -2 -2 -3 -3 -4 -4 -5 -6 -7 -8 -9 -9 -9 -8 -8 -9 -9 -9 -10 -11 -11 -10 -10 -10 -8 -8 -8 -7 -7 -7 -8 -8 -8
0 0 -0 -0 -1 -2 -2 -3 -3 -2 -3 -3 -3 -3 -4 -5 -6 -7 -7 -9 -9 -9 -9 -9 -9 -10 -11 -11 -11 -11 -11 -12 -12 -11 -11 -11 -10 -10 -9 -9 -9 -9 -9 -10
-1 -1 -1 -1 -2 -2 -3 -3 -3 -3 -4 -4 -4 -5 -5 -6 -7 -8 -9 -10 -10 -10 -10 -11 -11 -11 -12 -12 -12 -12 -13 -13 -13 -13 -13 -13 -13 -12 -12 -12 -12 -12 -12 -12
-2 -2 -2 -3 -3 -3 -4 -4 -4 -5 -5 -5 -5 -6 -7 -8 -9 -9 -10 -11 -11 -11 -12 -13 -13 -12 -12 -13 -14 -14 -14 -14 -14 -15 -15 -15 -15 -15 -15 -14 -14 -14 -14 -13
-2 -2 -3 -4 -4 -4 -5 -6 -6 -7 -7 -8 -8 -8 -8 -9 -10 -11 -11 -12 -13 -13 -14 -15 -15 -15 -15 -15 -15 -15 -16 -16 -16 -16 -16 -16 -16 -16 -16 -16 -16 -16 -15 -15
-2 -3 -4 -5 -6 -6 -6 -7 -8 -7 -7 -7 -8 -9 -10 -11 -12 -12 -13 -14 -14 -15 -16 -16 -16 -16 -17 -17 -17 -18 -18 -18 -18 -18 -17 -18 -18 -18 -17 -17 -17 -17 -17 -16
-4 -5 -6 -6 -6 -7 -7 -7 -7 -7 -8 -9 -10 -11 -12 -13 -13 -13 -14 -15 -15 -16 -17 -17 -18 -18 -18 -18 -19 -19 -19 -19 -19 -19 -18 -19 -19 -19 -19 -18 -18 -18 -18 -18
-6 -6 -7 -7 -7 -8 -7 -7 -8 -9 -10 -11 -12 -12 -13 -14 -14 -14 -15 -16 -16 -17 -18 -18 -18 -18 -19 -19 -20 -20 -19 -19 -19 -19 -19 -20 -20 -19 -19 -19 -19 -19 -19 -18

GFSNGP_850_temp_030.txt.gz
Temp
15 16 17 17 17 17 16 14 12 14 13 16 17 16 16 20 18 18 17 16 16 15 15 15 14 13 12 12 11 10 10 9 8 8 7 5 4 4 3 2 1 0 1 1
15 14 15 16 15 15 16 16 14 16 15 13 15 16 16 17 18 17 17 17 17 17 15 15 14 13 12 11 11 10 9 8 7 6 5 5 4 2 2 1 -1 1 0 1
12 10 12 10 13 14 16 16 16 13 14 13 12 13 14 16 17 16 15 15 15 15 15 15 15 14 13 12 11 9 8 7 6 5 5 3 2 1 -0 -1 -1 0 1 -0
7 7 9 13 14 15 12 13 12 13 13 12 12 13 14 14 14 14 15 15 14 14 14 14 14 13 12 10 9 8 7 6 5 4 3 2 -0 -1 -0 -0 -1 1 -0 -1
7 7 10 14 15 14 13 13 13 12 12 13 13 14 13 13 13 14 14 14 14 14 14 14 12 11 10 8 7 6 5 3 1 0 -0 -1 -0 0 -1 0 0 -1 -1 -2
5 7 8 10 14 16 13 9 13 12 12 13 13 5 9 12 13 13 13 13 13 13 13 13 12 10 9 8 6 4 2 0 -1 -1 0 0 -0 -1 -0 -1 -1 -2 -2 -3
2 4 7 10 14 15 12 10 13 13 13 13 10 11 11 11 12 12 12 11 11 11 11 10 8 7 7 4 2 0 1 0 0 0 -0 -2 -1 -1 -1 -2 -2 -3 -2 -2
5 5 9 13 14 12 10 12 13 13 13 13 11 11 11 11 11 10 9 8 8 8 7 5 4 5 4 4 2 1 0 0 -0 -1 -1 -1 -1 -1 -2 -2 -2 -2 -3 -3
7 7 11 14 14 14 14 13 12 13 12 12 12 10 9 9 8 7 6 5 5 5 4 3 3 3 2 2 1 -0 -1 -1 -1 -0 -1 -1 -1 -2 -2 -2 -2 -3 -3 -4
9 10 10 11 12 13 13 13 11 11 11 11 10 8 7 6 5 4 3 3 2 2 2 1 1 0 -0 -1 -1 -0 -0 -0 -0 -0 -1 -1 -2 -2 -2 -2 -3 -4 -5 -5
8 9 9 9 9 10 9 9 9 9 9 9 9 6 5 3 3 2 2 1 1 1 0 -0 -0 -0 -0 -0 -0 -0 -0 -1 -1 -1 -2 -2 -2 -2 -3 -3 -4 -4 -5 -5
7 11 9 8 7 8 9 8 7 8 7 5 6 4 3 2 1 1 1 0 -0 -0 -0 -1 -1 -1 -1 -2 -2 -2 -2 -2 -2 -2 -2 -2 -3 -3 -3 -4 -4 -5 -5 -5
9 11 10 7 7 7 8 6 5 6 5 4 3 3 2 1 0 -0 -1 -1 -1 -1 -1 -2 -2 -2 -2 -2 -2 -2 -3 -3 -3 -4 -4 -4 -4 -4 -4 -4 -5 -5 -5 -5
11 10 4 6 4 5 6 4 4 3 2 2 1 0 0 -1 -1 -1 -2 -2 -1 -1 -1 -2 -2 -2 -2 -3 -3 -3 -4 -4 -4 -4 -5 -5 -5 -5 -4 -4 -4 -4 -5 -5
8 9 8 5 4 3 3 2 2 1 -0 -1 -1 -1 -1 -1 -1 -1 -2 -2 -2 -2 -2 -2 -2 -3 -3 -3 -3 -4 -4 -4 -5 -6 -6 -6 -5 -5 -5 -5 -5 -5 -5 -5
5 6 4 4 2 1 1 1 1 -0 -0 -0 -1 -1 -1 -1 -1 -1 -2 -2 -2 -2 -3 -4 -3 -4 -5 -5 -5 -5 -5 -6 -7 -8 -8 -8 -7 -7 -6 -7 -6 -6 -6 -6
3 1 2 1 1 0 0 0 0 -0 -0 -0 -0 -1 -1 -1 -2 -2 -2 -2 -3 -4 -6 -5 -6 -6 -6 -6 -6 -6 -7 -7 -8 -8 -9 -9 -9 -8 -8 -8 -7 -7 -8 -7
6 3 3 3 1 0 -0 -0 -0 -0 -0 -1 -1 -2 -2 -2 -2 -3 -3 -4 -5 -6 -6 -6 -7 -7 -7 -7 -8 -8 -9 -9 -10 -11 -11 -10 -10 -10 -9 -9 -9 -8 -7 -7
4 3 2 1 1 0 -0 -1 -1 -1 -1 -2 -2 -2 -2 -2 -3 -3 -4 -4 -5 -6 -6 -7 -7 -8 -8 -9 -9 -10 -10 -11 -11 -11 -12 -11 -11 -11 -10 -11 -9 -8 -7 -8
1 1 1 0 -0 0 -1 -1 -1 -2 -2 -2 -3 -3 -3 -4 -4 -5 -5 -6 -7 -8 -9 -9 -9 -9 -10 -11 -11 -12 -12 -12 -12 -12 -12 -12 -12 -12 -12 -11 -11 -11 -11 -10
0 0 0 0 -1 -1 -1 -2 -2 -2 -3 -4 -4 -4 -4 -4 -5 -6 -7 -8 -8 -9 -10 -10 -10 -11 -11 -12 -12 -12 -13 -13 -13 -13 -14 -14 -14 -14 -14 -14 -13 -13 -13 -13
-1 -1 -2 -3 -2 -2 -3 -3 -3 -3 -4 -4 -4 -5 -5 -6 -6 -7 -9 -10 -11 -11 -12 -12 -12 -12 -12 -12 -13 -13 -14 -14 -14 -15 -15 -15 -15 -15 -15 -15 -15 -15 -15 -14
-1 -3 -2 -2 -2 -3 -4 -4 -4 -5 -4 -5 -5 -6 -6 -7 -9 -10 -10 -11 -13 -13 -13 -13 -14 -14 -14 -13 -14 -14 -15 -15 -16 -16 -16 -17 -17 -17 -17 -17 -17 -16 -16 -16
-3 -3 -3 -4 -4 -4 -5 -6 -6 -6 -6 -6 -7 -8 -9 -10 -11 -11 -12 -13 -14 -14 -14 -14 -14 -14 -14 -14 -15 -15 -16 -16 -17 -17 -17 -18 -18 -18 -18 -18 -18 -18 -18 -17
-3 -4 -4 -5 -6 -6 -6 -7 -8 -8 -8 -9 -9 -10 -11 -11 -12 -12 -13 -14 -14 -15 -15 -15 -15 -15 -15 -16 -16 -17 -17 -17 -18 -18 -18 -18 -18 -19 -19 -19 -19 -19 -19 -19
-5 -5 -6 -7 -7 -7 -8 -8 -9 -9 -9 -10 -11 -11 -12 -12 -13 -14 -14 -15 -15 -15 -15 -15 -16 -16 -17 -17 -17 -18 -18 -18 -18 -18 -19 -19 -19 -19 -19 -19 -19 -19 -19 -19
-6 -7 -7 -8 -8 -9 -10 -10 -10 -10 -10 -11 -12 -12 -13 -13 -14 -15 -15 -16 -16 -16 -16 -17 -17 -18 -18 -18 -18 -18 -18 -19 -19 -19 -19 -19 -20 -19 -19 -19 -19 -20 -19 -19

GFSNGP_850_temp_033.txt.gz
Temp
14 15 15 16 16 14 14 13 12 13 12 14 16 15 15 16 17 18 17 16 16 15 16 16 14 13 12 12 11 11 11 11 10 10 9 8 7 5 4 3 2 1 -0 -1
14 13 13 15 14 14 13 14 13 14 14 13 14 14 14 14 16 15 15 15 15 16 15 15 14 13 12 12 11 11 11 10 9 7 6 5 4 4 2 1 0 -1 -1 0
12 10 11 9 11 13 14 14 14 13 13 13 12 12 12 14 15 15 15 15 16 15 15 15 14 13 13 12 11 10 9 8 7 6 6 4 3 2 0 -1 -1 -0 -0 -1
7 7 8 12 13 12 12 12 11 12 12 11 11 11 13 13 13 13 14 14 14 14 14 14 13 12 12 11 9 8 7 6 6 5 4 1 0 -1 -1 -1 0 -0 -1 -1
7 7 10 14 12 12 13 13 13 10 10 11 11 13 12 13 14 14 14 14 14 13 13 13 13 12 11 9 8 7 5 4 3 1 0 -1 -1 -1 -0 -0 -1 -1 -1 -1
4 7 9 10 12 15 12 9 12 11 10 11 11 5 8 11 12 13 13 13 12 12 12 11 11 10 8 7 5 4 3 1 -0 -1 -1 -1 -0 0 -0 -2 -1 -1 -1 -1
1 5 7 9 13 14 12 10 12 13 13 12 9 10 11 11 11 11 11 11 10 10 9 8 7 6 6 4 3 2 1 1 1 0 -0 -0 -1 -1 -1 -1 -2 -2 -2 -2
3 4 9 12 12 11 10 12 13 13 13 12 12 11 10 9 9 8 8 7 7 7 6 4 3 4 3 3 3 2 1 0 0 -1 -1 -0 -1 -1 -1 -2 -2 -2 -2 -2
8 7 10 12 13 15 15 14 13 13 12 13 11 9 8 7 6 5 5 5 4 5 4 3 2 2 2 1 0 0 -0 -0 -0 -0 -0 -1 -1 -1 -2 -2 -2 -2 -3 -3
8 10 10 11 13 14 14 13 13 13 12 11 10 7 6 5 4 4 3 3 3 3 2 2 1 0 0 -1 -1 -0 -1 -1 -1 -1 -1 -2 -2 -2 -2 -2 -3 -3 -3 -3
7 8 8 9 11 12 12 12 11 10 11 10 10 6 5 4 3 2 2 2 1 1 -0 -1 -1 -1 -1 -1 -1 -1 -1 -1 -2 -2 -3 -2 -3 -3 -3 -3 -4 -4 -4 -4
7 9 10 9 9 9 10 9 9 10 8 7 7 6 4 2 2 1 1 -0 -1 -1 -1 -2 -2 -1 -2 -2 -2 -1 -2 -2 -2 -2 -2 -3 -3 -3 -3 -4 -4 -5 -4 -4
11 10 10 9 7 7 9 8 7 7 7 5 4 4 3 1 -0 -1 -1 -1 -1 -1 -2 -2 -2 -2 -2 -2 -2 -2 -2 -2 -3 -3 -3 -4 -4 -5 -5 -5 -5 -5 -5 -5
13 11 5 6 5 6 7 5 5 4 4 3 2 1 0 -0 -1 -1 -1 -2 -2 -2 -2 -2 -2 -2 -2 -2 -2 -3 -3 -4 -4 -4 -5 -6 -6 -7 -8 -7 -7 -7 -6 -6
8 10 10 6 5 4 4 3 3 2 1 0 -0 -0 -0 -1 -1 -1 -2 -2 -2 -2 -2 -2 -2 -3 -3 -3 -4 -4 -4 -5 -5 -6 -7 -7 -8 -8 -9 -9 -9 -9 -8 -7
6 7 5 5 3 2 2 2 2 -0 -0 -1 -1 -1 -1 -1 -2 -2 -2 -2 -2 -2 -2 -2 -3 -4 -4 -4 -5 -5 -6 -6 -7 -7 -8 -8 -9 -10 -10 -10 -10 -9 -9 -9
3 0 1 1 1 1 1 1 1 -0 -1 -1 -1 -1 -1 -2 -2 -2 -2 -2 -3 -3 -4 -4 -5 -5 -5 -6 -6 -6 -7 -7 -8 -9 -9 -10 -11 -11 -11 -11 -11 -11 -11 -10
7 5 4 4 2 1 0 0 -0 -0 -1 -1 -1 -2 -2 -2 -2 -2 -3 -4 -4 -5 -5 -5 -5 -6 -7 -7 -7 -8 -9 -9 -10 -11 -11 -12 -12 -12 -12 -12 -12 -12 -12 -11
6 5 3 2 2 1 0 -0 -1 -1 -1 -1 -2 -2 -2 -2 -3 -3 -4 -5 -5 -6 -5 -6 -7 -8 -8 -8 -9 -10 -10 -11 -11 -12 -12 -12 -13 -13 -13 -13 -13 -13 -12 -12
2 2 2 1 0 0 -1 -1 -1 -1 -2 -2 -2 -2 -2 -3 -4 -5 -5 -5 -6 -6 -7 -8 -8 -9 -9 -10 -10 -11 -12 -12 -12 -13 -13 -13 -14 -14 -14 -14 -14 -14 -14 -14
1 1 0 -0 -1 -2 -1 -1 -1 -2 -2 -3 -3 -3 -4 -4 -5 -6 -7 -7 -7 -8 -8 -9 -9 -10 -10 -11 -11 -12 -13 -13 -13 -14 -14 -14 -15 -15 -15 -15 -16 -16 -15 -15
-1 -1 -2 -3 -2 -2 -2 -2 -2 -2 -3 -3 -4 -4 -5 -6 -7 -7 -8 -8 -9 -10 -10 -10 -11 -12 -12 -12 -13 -13 -14 -14 -15 -15 -15 -15 -16 -16 -16 -16 -17 -17 -17 -17
-2 -3 -4 -3 -3 -3 -3 -4 -4 -4 -4 -5 -6 -6 -7 -7 -8 -8 -9 -10 -11 -12 -12 -13 -13 -14 -14 -14 -14 -14 -15 -15 -15 -16 -16 -17 -17 -17 -17 -17 -17 -18 -18 -18
-4 -3 -4 -4 -4 -4 -4 -6 -6 -6 -6 -7 -7 -7 -8 -9 -10 -10 -11 -12 -13 -14 -14 -15 -15 -15 -15 -15 -15 -15 -16 -16 -16 -17 -17 -17 -17 -18 -18 -18 -18 -18 -18 -18
-3 -4 -4 -4 -5 -5 -6 -6 -7 -8 -8 -8 -9 -9 -10 -11 -11 -12 -13 -14 -14 -15 -15 -15 -15 -16 -16 -16 -16 -16 -16 -17 -17 -18 -18 -18 -18 -18 -18 -18 -19 -19 -19 -19
-5 -5 -6 -6 -6 -7 -7 -8 -9 -9 -10 -10 -10 -11 -12 -12 -13 -14 -15 -15 -16 -16 -16 -16 -16 -17 -17 -17 -17 -17 -17 -18 -18 -19 -18 -18 -19 -19 -19 -19 -19 -19 -19 -19
-6 -6 -7 -8 -8 -9 -9 -9 -10 -10 -11 -12 -12 -12 -13 -14 -15 -15 -16 -16 -16 -17 -16 -17 -17 -18 -18 -18 -18 -18 -19 -19 -19 -19 -19 -19 -19 -19 -19 -19 -20 -20 -20 -20

GFSNGP_850_temp_036.txt.gz
Temp
13 14 14 15 16 12 13 12 12 13 11 13 13 14 14 15 16 17 18 17 17 16 16 15 15 15 15 15 14 13 11 9 9 9 8 8 8 7 6 4 3 2 1 0
13 13 13 14 13 13 12 13 12 12 12 12 13 13 12 13 14 14 14 14 14 14 14 13 13 13 13 13 12 11 10 9 8 8 7 7 6 6 5 4 2 0 -1 -1
12 10 12 9 10 12 12 12 13 12 12 11 12 11 11 12 13 13 13 14 14 15 15 14 14 13 12 11 10 9 8 8 7 6 5 5 4 3 2 1 -0 -1 -1 -1
6 7 9 13 12 13 11 11 11 11 11 10 10 10 11 11 12 13 13 14 14 14 14 14 14 14 13 11 9 8 7 6 5 5 4 3 2 1 -1 -2 -1 -1 -0 -1
8 7 10 13 12 11 11 12 10 10 8 9 10 11 9 11 12 12 12 12 13 13 13 12 12 12 11 9 7 6 5 4 4 3 2 0 -1 -1 -1 -0 -1 -0 -1 -1
4 7 8 10 12 13 12 10 10 10 8 8 10 5 7 9 10 11 12 12 12 11 11 10 10 9 7 7 5 5 3 2 1 1 -0 -0 -1 -1 -0 -1 -1 -1 -2 -2
1 5 7 9 12 13 11 10 11 12 11 10 9 9 10 9 10 10 10 10 9 8 8 8 6 5 5 3 3 2 1 1 1 0 -0 -0 -0 -1 -1 -1 -1 -1 -2 -2
3 4 9 11 11 11 10 12 13 13 13 11 12 10 10 9 9 8 8 7 6 6 5 3 3 3 2 2 1 0 0 0 0 -0 -0 -1 -1 -1 -1 -1 -2 -2 -2 -2
8 8 10 11 12 15 14 14 13 14 13 13 12 10 9 8 7 6 5 5 4 4 3 2 1 1 2 0 -0 -0 -1 -1 -1 -1 -1 -1 -1 -2 -2 -2 -2 -2 -3 -3
8 9 8 11 12 13 14 14 14 14 14 13 13 9 7 6 5 4 3 3 3 2 2 1 0 0 0 -0 -0 -0 -1 -1 -1 -1 -1 -2 -2 -2 -2 -3 -3 -4 -4 -4
7 7 8 9 11 12 13 13 13 13 13 12 11 7 7 5 3 3 2 2 1 1 1 0 -1 -0 -1 -1 -1 -1 -1 -1 -2 -2 -2 -2 -2 -3 -3 -3 -4 -5 -5 -5
9 10 11 12 13 11 12 12 12 12 9 9 9 8 5 3 2 2 1 0 0 -0 -0 -1 -1 -1 -1 -1 -1 -1 -2 -2 -2 -2 -2 -3 -3 -2 -3 -3 -4 -5 -5 -6
12 12 12 12 10 10 10 9 9 9 9 8 6 5 4 2 1 0 -0 -0 -1 -1 -1 -2 -2 -2 -2 -2 -2 -2 -2 -2 -2 -3 -3 -4 -4 -5 -5 -5 -6 -7 -8 -9
13 12 6 7 7 8 9 8 7 7 6 6 5 3 2 1 -1 -1 -1 -1 -1 -2 -2 -2 -2 -2 -2 -3 -3 -3 -3 -4 -4 -5 -5 -6 -6 -7 -8 -8 -8 -8 -9 -10
8 10 12 9 7 6 6 6 5 4 3 2 2 1 1 -0 -1 -1 -2 -2 -2 -2 -2 -3 -3 -3 -3 -3 -3 -4 -4 -5 -5 -6 -7 -8 -8 -9 -9 -10 -11 -11 -10 -10
7 8 7 7 4 4 4 3 4 2 1 0 0 -0 -1 -1 -1 -2 -2 -2 -2 -2 -3 -3 -3 -3 -4 -4 -5 -5 -6 -6 -7 -8 -8 -9 -9 -10 -10 -11 -12 -12 -12 -12
5 0 2 1 3 2 3 3 3 1 0 -0 -1 -1 -1 -2 -2 -2 -3 -3 -3 -3 -3 -4 -4 -5 -5 -5 -6 -7 -7 -8 -8 -9 -9 -10 -11 -11 -12 -12 -12 -13 -13 -13
8 8 5 6 4 2 1 1 1 0 -0 -1 -1 -2 -2 -2 -2 -2 -3 -3 -4 -4 -5 -5 -5 -6 -6 -7 -7 -8 -8 -9 -10 -10 -11 -11 -12 -13 -13 -13 -14 -14 -14 -13
6 5 4 3 2 2 1 -0 -1 -1 -1 -1 -2 -2 -2 -2 -2 -3 -4 -4 -5 -5 -5 -6 -6 -7 -7 -8 -8 -9 -10 -10 -11 -11 -12 -12 -13 -13 -14 -14 -14 -15 -15 -15
3 3 3 2 1 0 -1 -2 -3 -3 -2 -2 -2 -2 -3 -3 -4 -4 -5 -6 -6 -6 -6 -7 -7 -8 -9 -9 -10 -10 -11 -12 -12 -13 -13 -13 -14 -14 -15 -15 -15 -15 -16 -16
1 1 0 -0 -1 -2 -2 -3 -3 -2 -4 -3 -3 -3 -3 -4 -5 -6 -6 -6 -7 -7 -8 -8 -9 -9 -10 -11 -11 -12 -12 -13 -13 -14 -14 -14 -15 -15 -15 -16 -16 -16 -16 -16
0 -0 -1 -2 -3 -3 -4 -3 -4 -3 -3 -3 -4 -4 -5 -5 -6 -6 -7 -8 -8 -9 -9 -10 -10 -11 -11 -12 -12 -13 -14 -14 -14 -15 -15 -15 -15 -16 -16 -16 -17 -17 -17 -17
-2 -2 -2 -3 -4 -4 -5 -4 -4 -4 -4 -5 -5 -6 -6 -7 -7 -8 -9 -9 -10 -10 -11 -12 -12 -13 -13 -13 -14 -15 -15 -15 -15 -15 -16 -16 -17 -17 -17 -18 -18 -18 -18 -18
-3 -3 -4 -4 -4 -5 -6 -6 -6 -6 -6 -7 -7 -8 -8 -9 -9 -10 -10 -11 -11 -12 -13 -14 -14 -15 -15 -16 -16 -16 -16 -16 -16 -17 -17 -17 -18 -18 -18 -18 -19 -19 -19 -19
-4 -4 -4 -5 -5 -7 -7 -7 -7 -8 -8 -8 -9 -9 -10 -10 -10 -11 -11 -12 -13 -14 -15 -15 -16 -17 -17 -17 -17 -17 -17 -17 -17 -18 -18 -18 -18 -18 -19 -19 -19 -19 -19 -19
-5 -5 -6 -6 -7 -8 -8 -8 -8 -9 -9 -9 -10 -11 -11 -12 -11 -12 -13 -14 -15 -16 -16 -17 -17 -18 -18 -18 -18 -18 -18 -18 -18 -19 -19 -19 -19 -19 -19 -19 -19 -20 -20 -20
-7 -7 -8 -8 -8 -9 -9 -9 -10 -10 -10 -11 -11 -12 -12 -13 -13 -14 -15 -16 -16 -17 -18 -18 -18 -19 -19 -19 -18 -18 -18 -19 -19 -19 -19 -19 -19 -20 -20 -20 -20 -20 -20 -20